[[{"header":{"parameterUnit":"m.s-1","parameterCategory":1,"la1":30.2991,"la2":30.254,"lo1":-89.0895,"lo2":-89.0444,"dy":0.0017,"dx":0.0017,"nx":28,"ny":28,"refTime":"2024-02-26T03:00:00:Z","depth":0,"parameterNumber":2,"parameterNumberName":"U-component_of_WINDS"},"data":[0,0,0,0,0,0,0,0,0,0,0,0,0,0,0,0,0,0,0,0,0,0,0,0,0,0,0,0,0,0,0,0,0,0,0,0,0,0,0,0,0,0,0,0,0,0,0,0,0,0,0,0,0,0,0,0,0,0,-2.0931,-2.0932,0,-2.1013,-2.1014,-2.1015,-2.0996,-2.0994,-2.0992,-2.0991,-2.108,-2.1084,-2.1088,0,0,0,0,0,0,0,0,0,0,0,0,0,-2.076,-2.0763,-2.0931,-2.0932,-2.0933,-2.1013,-2.1014,-2.1016,-2.0996,-2.0994,-2.0992,-2.099,-2.1079,-2.1083,-2.1088,0,0,0,0,0,0,0,0,0,0,0,0,0,-2.0838,-2.0764,-2.0931,-2.0933,-2.0934,-2.1013,-2.1014,-2.1016,-2.0996,-2.0994,-2.0991,-2.0989,-2.1077,-2.1083,-2.1089,-2.1173,0,0,-2.1106,-2.1109,0,0,0,0,0,0,0,0,-2.0833,-2.0844,-2.0931,-2.0933,-2.0934,-2.0992,-2.0987,-2.1069,-2.0997,-2.0973,-2.0991,-2.0988,-2.1053,-2.106,-2.1081,-2.1177,-2.1181,-2.1107,-2.111,-2.1113,-2.1114,0,0,0,0,0,0,0,-2.0828,-2.084,-2.0964,-2.0933,-2.0934,-2.0931,-2.0939,-2.1002,-2.1025,-2.0975,-2.0973,-2.0983,-2.1053,-2.1076,-2.1083,-2.1182,-2.1107,-2.1112,-2.1115,-2.1118,-2.135,-2.1353,0,0,0,0,0,0,-2.0821,-2.0836,-2.0961,-2.0966,-2.0876,-2.0936,-2.0945,-2.0976,-2.1025,-2.103,-2.0985,-2.0982,-2.1067,-2.1077,-2.1086,-2.1187,-2.1113,-2.1118,-2.1122,-2.1347,-2.1351,-2.1354,0,0,0,0,0,0,-2.0817,-2.0832,-2.0958,-2.0901,-2.0916,-2.0941,-2.0976,-2.0978,-2.1001,-2.1032,-2.1037,-2.1004,-2.1066,-2.1078,-2.1151,-2.119,-2.1121,-2.1126,-2.1344,-2.1348,-2.1352,-2.139,0,0,0,0,0,0,-2.0813,-2.0831,-2.0862,-2.0902,-2.0919,-2.1019,-2.0978,-2.0982,-2.1011,-2.1007,-2.1051,-2.1056,-2.1065,-2.1142,-2.1157,-2.1197,-2.1131,-2.1341,-2.1346,-2.1351,-2.1385,-2.1395,-2.1403,0,0,0,0,0,-2.0807,-2.0871,-2.0864,-2.0879,-2.0959,-2.1022,-2.1032,-2.1039,-2.1014,-2.1046,-2.1066,-2.1055,-2.1184,-2.115,-2.1166,-2.1208,-2.1338,-2.1345,-2.1351,-2.1381,-2.1393,-2.1402,0,0,0,0,0,0,-2.0837,-2.0876,-2.0869,-2.0947,-2.0981,-2.1018,-2.1059,-2.1051,-2.1094,-2.1089,-2.1098,-2.1108,-2.1182,-2.1203,-2.1164,-2.1292,-2.1258,-2.1267,-2.1275,-2.1287,-2.1295,-2.1288,-2.1135,0,0,0,0,0,-2.0852,-2.0899,-2.0931,-2.0997,-2.1014,-2.1034,-2.1062,-2.1064,-2.11,-2.1115,-2.114,-2.1177,-2.1226,-2.1258,-2.1304,-2.1389,-2.1398,-2.1426,-2.1435,-2.1442,-2.1449,-2.1495,-2.1508,-2.1374,-2.1374,-2.1373,0,0,-2.0885,-2.0912,-2.0941,-2.1004,-2.103,-2.1079,-2.1046,-2.1099,-2.1136,-2.1123,-2.1192,-2.1213,-2.1255,-2.1333,-2.1369,-2.1353,-2.1489,-2.1449,-2.1455,-2.1459,-2.1503,-2.1515,-2.1527,-2.1378,-2.1377,-2.1376,0,0,-2.097,-2.0995,-2.1052,-2.1079,-2.112,-2.1132,-2.1146,-2.1184,-2.1197,-2.1266,-2.1258,-2.1303,-2.1387,-2.1416,-2.1442,-2.1539,-2.153,-2.1554,-2.16,-2.1644,-2.1655,-2.1664,-2.1697,-2.1709,-2.1562,-2.1562,-2.1562,0,-2.1006,-2.1078,-2.1083,-2.1137,-2.1165,-2.1155,-2.1213,-2.124,-2.1294,-2.1314,-2.1295,-2.1399,-2.1427,-2.1512,-2.1535,-2.1557,-2.1574,-2.1548,-2.1652,-2.1662,-2.1671,-2.1703,-2.1715,-2.1565,-2.1565,-2.1564,-2.1564,0,-2.112,-2.117,-2.1212,-2.1262,-2.1295,-2.1351,-2.1366,-2.14,-2.14,-2.1415,-2.1486,-2.1519,-2.1571,-2.1592,-2.1594,-2.1678,-2.1666,-2.165,-2.1615,-2.1686,-2.1716,-2.1729,-2.1568,-2.1568,-2.1567,-2.1566,0,0,-2.1224,-2.1277,-2.1292,-2.1315,-2.1358,-2.1398,-2.1455,-2.1505,-2.1532,-2.1571,-2.1618,-2.169,-2.1674,-2.1704,-2.1709,-2.1748,-2.1822,-2.1727,-2.1728,-2.1743,-2.1916,-2.1927,-2.1941,-2.1817,-2.1819,-2.1821,-2.1912,0,-2.1312,-2.1408,-2.1415,-2.1503,-2.155,-2.1541,-2.159,-2.1623,-2.1639,-2.1682,-2.1701,-2.175,-2.1727,-2.1745,-2.1783,-2.1804,-2.1856,-2.1798,-2.1861,-2.1863,-2.1849,-2.1957,-2.1968,-2.2052,-2.1924,-2.1926,-2.1927,0,-2.1426,-2.1465,-2.1558,-2.1594,-2.1614,-2.1658,-2.1704,-2.1745,-2.1783,-2.1792,-2.1825,-2.1825,-2.1884,-2.1848,-2.193,-2.189,-2.1917,-2.1931,-2.1935,-2.194,-2.1898,-2.1963,-2.2079,-2.2091,-2.1946,-2.1945,-2.1943,0,-2.1491,-2.1568,-2.1633,-2.1653,-2.1698,-2.1729,-2.1749,-2.1784,-2.1814,-2.1856,-2.1875,-2.1924,-2.195,-2.1988,-2.2001,-2.1974,-2.2082,-2.2048,-2.2092,-2.2091,-2.2113,-2.2112,-2.2234,-2.2133,-2.2133,-2.2133,-2.2133,0,-2.1587,-2.1643,-2.1662,-2.1702,-2.1765,-2.1774,-2.1837,-2.1856,-2.1888,-2.1932,-2.1929,-2.1971,-2.1986,-2.2031,-2.2042,-2.2108,-2.212,-2.213,-2.2131,-2.2129,-2.2127,-2.2145,-2.2139,-2.2136,-2.2135,-2.2135,-2.2134,0,-2.167,-2.1685,-2.1755,-2.1791,-2.1802,-2.1847,-2.1879,-2.1918,-2.1933,-2.1989,-2.2003,-2.2028,-2.2081,-2.2098,-2.2162,-2.217,-2.2246,-2.2244,-2.2232,-2.2232,-2.2274,-2.227,-2.2411,-2.243,-2.2318,-2.2319,-2.232,0,-2.1729,-2.1772,-2.1813,-2.1841,-2.1862,-2.1909,-2.1939,-2.195,-2.1981,-2.2027,-2.2061,-2.2113,-2.2154,-2.2239,-2.2264,-2.2313,-2.2311,-2.2358,-2.2319,-2.2314,-2.231,-2.2307,-2.2311,-2.2364,-2.2366,-2.2366,-2.2367,0,-2.1832,-2.1837,-2.1879,-2.1925,-2.196,-2.1996,-2.2032,-2.2056,-2.2072,-2.2108,-2.216,-2.2193,-2.2258,-2.2309,-2.236,-2.2382,-2.2378,-2.238,-2.2392,-2.2389,-2.238,-2.2384,-2.225,-2.2376,-2.2375,-2.2374,-2.2374,-2.2374,-2.1904,-2.1941,-2.1976,-2.2023,-2.205,-2.2083,-2.2121,-2.2141,-2.2185,-2.2237,-2.2242,-2.2299,-2.2336,-2.2403,-2.2428,-2.2474,-2.2461,-2.2479,-2.2484,-2.2488,-2.249,-2.2374,-2.2484,-2.2483,-2.2483,-2.2483,-2.2483,0,-2.2006,-2.2027,-2.2071,-2.2119,-2.2157,-2.2148,-2.2187,-2.2219,-2.2268,-2.2303,-2.2344,-2.2405,-2.2455,-2.2484,-2.2534,-2.2565,-2.2564,-2.2578,-2.2575,-2.258,-2.25,-2.2483,-2.2578,-2.2578,-2.2578,-2.2578,-2.2578,-2.2578,-2.2063,-2.2125,-2.2135,-2.2211,-2.2233,-2.2287,-2.231,-2.2341,-2.2368,-2.2436,-2.2477,-2.2495,-2.2527,-2.258,-2.2626,-2.2633,-2.2652,-2.2666,-2.2672,-2.2596,-2.2586,-2.2577,-2.2561,-2.2671,-2.2671,-2.2749,-2.2749,-2.275]},{"header":{"parameterUnit":"m.s-1","parameterCategory":1,"la1":30.2991,"la2":30.254,"lo1":-89.0895,"lo2":-89.0444,"dy":0.0017,"dx":0.0017,"nx":28,"ny":28,"refTime":"2024-02-26T03:00:00:Z","depth":0,"parameterNumber":3,"parameterNumberName":"V-component_of_WINDS"},"data":[0,0,0,0,0,0,0,0,0,0,0,0,0,0,0,0,0,0,0,0,0,0,0,0,0,0,0,0,0,0,0,0,0,0,0,0,0,0,0,0,0,0,0,0,0,0,0,0,0,0,0,0,0,0,0,0,0,0,1.9604,1.9604,0,1.965,1.965,1.9651,1.9643,1.9643,1.9642,1.9641,1.9691,1.9693,1.9695,0,0,0,0,0,0,0,0,0,0,0,0,0,1.9514,1.9516,1.9604,1.9604,1.9605,1.965,1.965,1.9651,1.9643,1.9642,1.9641,1.9641,1.969,1.9693,1.9695,0,0,0,0,0,0,0,0,0,0,0,0,0,1.9556,1.9516,1.9604,1.9606,1.9607,1.965,1.965,1.9651,1.9644,1.9642,1.9641,1.964,1.969,1.9693,1.9696,1.9739,0,0,1.9705,1.9707,0,0,0,0,0,0,0,0,1.9553,1.9559,1.9605,1.9606,1.9607,1.9639,1.9637,1.9681,1.9644,1.963,1.9641,1.964,1.9675,1.9679,1.9691,1.9742,1.9744,1.9706,1.9708,1.9709,1.971,0,0,0,0,0,0,0,1.9551,1.9557,1.9622,1.9606,1.9607,1.9607,1.9612,1.9645,1.9659,1.9631,1.9631,1.9636,1.9675,1.9688,1.9692,1.9744,1.9706,1.9708,1.971,1.9711,1.9837,1.9838,0,0,0,0,0,0,1.9546,1.9555,1.9621,1.9623,1.9577,1.961,1.9615,1.963,1.9658,1.9661,1.9637,1.9635,1.9683,1.9688,1.9694,1.9748,1.9709,1.9712,1.9714,1.9835,1.9837,1.9838,0,0,0,0,0,0,1.9544,1.9552,1.9619,1.9589,1.9597,1.9612,1.963,1.9632,1.9644,1.9663,1.9666,1.9647,1.9682,1.9689,1.9728,1.975,1.9713,1.9716,1.9833,1.9836,1.9838,1.9857,0,0,0,0,0,0,1.9542,1.9552,1.9567,1.9589,1.9599,1.9651,1.9631,1.9634,1.9649,1.9648,1.9673,1.9676,1.9682,1.9724,1.9732,1.9754,1.9718,1.9832,1.9834,1.9837,1.9855,1.986,1.9864,0,0,0,0,0,1.9539,1.9571,1.9568,1.9576,1.9618,1.9653,1.9658,1.9664,1.9651,1.9668,1.968,1.9675,1.9746,1.9728,1.9737,1.976,1.983,1.9834,1.9837,1.9853,1.9859,1.9864,0,0,0,0,0,0,1.9551,1.9574,1.9571,1.961,1.963,1.9651,1.9672,1.967,1.9693,1.9691,1.9698,1.9704,1.9744,1.9756,1.9735,1.9805,1.9787,1.9792,1.9796,1.9802,1.9806,1.9803,1.9721,0,0,0,0,0,1.9558,1.9583,1.9602,1.9635,1.9645,1.9657,1.9672,1.9675,1.9695,1.9703,1.9718,1.974,1.9767,1.9785,1.9811,1.9856,1.9863,1.9877,1.9881,1.9885,1.989,1.9918,1.9925,1.9849,1.9849,1.9849,0,0,1.9574,1.9589,1.9604,1.9638,1.9653,1.968,1.9664,1.9692,1.9713,1.9708,1.9746,1.9758,1.9783,1.9826,1.9845,1.9837,1.9912,1.9889,1.9892,1.9895,1.9922,1.9929,1.9935,1.9851,1.9851,1.9851,0,0,1.9616,1.9629,1.9659,1.9675,1.9698,1.9706,1.9714,1.9736,1.9744,1.9782,1.978,1.9805,1.9851,1.987,1.9885,1.9936,1.9934,1.9945,1.997,1.9996,2.0002,2.0008,2.0028,2.0036,1.9949,1.9949,1.9949,0,1.9633,1.9672,1.9676,1.9705,1.9722,1.9718,1.975,1.9765,1.9796,1.9808,1.9798,1.9858,1.9873,1.9922,1.9935,1.9946,1.9957,1.9942,2.0001,2.0006,2.0012,2.0031,2.0039,1.9951,1.995,1.995,1.995,0,1.9692,1.972,1.9742,1.9772,1.979,1.9821,1.9832,1.985,1.9852,1.9862,1.9902,1.9921,1.9952,1.9964,1.9965,2.0014,2.0008,1.9999,1.9981,2.002,2.0039,2.0046,1.9953,1.9952,1.9952,1.9951,0,0,1.9743,1.9776,1.9784,1.9798,1.9824,1.9847,1.9878,1.9908,1.9925,1.9947,1.9975,2.0016,2.0008,2.0026,2.003,2.0053,2.0096,2.0042,2.0043,2.0053,2.0153,2.0161,2.0169,2.0094,2.0095,2.0096,2.0152,0,1.979,1.9844,1.985,1.99,1.9927,1.9925,1.9953,1.9973,1.9983,2.0009,2.0021,2.0051,2.0038,2.0049,2.0071,2.0086,2.0116,2.0082,2.0123,2.0124,2.0118,2.0179,2.0186,2.0237,2.0159,2.016,2.0161,0,1.9851,1.9874,1.9927,1.9951,1.9963,1.9988,2.0017,2.0041,2.0065,2.0071,2.0091,2.0093,2.0128,2.0108,2.0158,2.0134,2.0151,2.0161,2.0163,2.0168,2.0146,2.0187,2.0254,2.0262,2.0172,2.0171,2.017,0,1.9885,1.993,1.9968,1.998,2.0009,2.0027,2.004,2.0063,2.0081,2.0107,2.0119,2.0149,2.0166,2.019,2.02,2.0184,2.025,2.023,2.0258,2.0258,2.0273,2.0273,2.0345,2.0282,2.0281,2.0281,2.0281,0,1.9937,1.997,1.9984,2.0008,2.0045,2.0052,2.009,2.0102,2.0123,2.015,2.015,2.0176,2.0187,2.0216,2.0224,2.0266,2.0273,2.028,2.0283,2.0281,2.0281,2.0294,2.0291,2.0283,2.0283,2.0283,2.0282,0,1.9982,1.9993,2.0034,2.0059,2.0066,2.0093,2.0114,2.0138,2.0149,2.0184,2.0192,2.021,2.0243,2.0256,2.0297,2.0302,2.0351,2.035,2.0343,2.0344,2.0372,2.037,2.0457,2.047,2.0396,2.0397,2.0397,0,2.0016,2.0041,2.0068,2.0086,2.01,2.0129,2.0148,2.0156,2.0176,2.0206,2.0227,2.0261,2.0288,2.0342,2.036,2.0392,2.0392,2.042,2.0397,2.0396,2.0395,2.0394,2.0398,2.0425,2.0426,2.0427,2.0427,0,2.0074,2.0079,2.0105,2.0135,2.0157,2.0181,2.0203,2.0219,2.0231,2.0254,2.0288,2.0309,2.0352,2.0386,2.0419,2.0435,2.0434,2.0434,2.0443,2.0443,2.0439,2.0444,2.0357,2.0432,2.0432,2.0431,2.0431,2.0431,2.0116,2.014,2.0163,2.0193,2.0211,2.0233,2.0258,2.0271,2.03,2.0335,2.0338,2.0376,2.0401,2.0446,2.0463,2.0494,2.0486,2.0498,2.0502,2.0505,2.0508,2.0432,2.05,2.05,2.05,2.0499,2.0499,0,2.0177,2.0192,2.022,2.0252,2.0277,2.0272,2.0298,2.032,2.0352,2.0376,2.0403,2.0444,2.0477,2.0498,2.0532,2.0553,2.0554,2.0562,2.0562,2.0566,2.0512,2.0502,2.0561,2.0561,2.0561,2.0561,2.0561,2.0561,2.0211,2.0251,2.0259,2.0309,2.0324,2.036,2.0376,2.0397,2.0416,2.0461,2.0489,2.0502,2.0525,2.0561,2.0593,2.0598,2.0612,2.0621,2.0626,2.0575,2.0569,2.0563,2.0554,2.0623,2.0623,2.0678,2.0678,2.0678]}]]